Weather History for Newport, VT

Change the Weather History Date:

Friday, November 9, 2012

  Actual Average Record
Temperature  
Mean Temperature 36 °F -  
Max Temperature 42 °F 44 °F 68 °F (2011)
Min Temperature 30 °F 29 °F 10 °F (1991)
Degree Days  
Heating Degree Days 29    
Moisture  
Dew Point 25 °F    
Average Humidity 63    
Maximum Humidity 76    
Minimum Humidity 37    
Precipitation  
Precipitation 0.00 in - - ()
Sea Level Pressure  
Sea Level Pressure 29.99 in    
Wind  
Wind Speed 6 mph (WNW)    
Max Wind Speed 12 mph    
Max Gust Speed 17 mph    
Visibility 10 miles    
Events      
Averages and records for this station are not official NWS values.
T = Trace of Precipitation, MM = Missing Value Source: NWS Daily Summary

Daily Weather History Graph

Daily Weather History Graph

Search for Another Location

Airport:

Trip Planner

Search our weather history database for the weather conditions in past years. The results will help you decide how hot, cold, wet, or windy it might be!

Date:

Astronomy

Nov. 09, 2012 Rise Set
Actual Time 6:38 AM EST 4:26 PM EST
Civil Twilight 6:07 AM EST 4:57 PM EST
Nautical Twilight 5:32 AM EST 5:32 PM EST
Astronomical Twilight 4:57 AM EST 6:06 PM EST
Moon 1:22 AM EST (11/9) 1:48 PM EST (11/9)
Length of Visible Light 10h 50m
Length of Day
9h 47m
Waning Crescent, 23% of the Moon is Illuminated
Nov 9
Waning Crescent
Nov 13
New
Nov 20
First Quarter
Nov 28
Full
Dec 6
Last Quarter

Hourly Weather History & Observations

Time (EST) Temp. Windchill Dew Point Humidity Pressure Visibility Wind Dir Wind Speed Gust Speed Precip Events Conditions
12:15 AM 35.6 °F 27.5 °F 28.0 °F 74% 29.92 in 10.0 mi NNW 11.5 mph - N/A   Overcast
12:35 AM 35.4 °F 29.7 °F 28.2 °F 75% 29.92 in 10.0 mi NW 6.9 mph 17.3 mph N/A   Overcast
12:55 AM 35.4 °F 30.5 °F 28.0 °F 75% 29.92 in 10.0 mi NW 5.8 mph - N/A   Overcast
1:15 AM 35.1 °F 29.3 °F 28.0 °F 76% 29.91 in 10.0 mi NNW 6.9 mph - N/A   Overcast
1:35 AM 35.6 °F 29.9 °F 27.3 °F 72% 29.92 in 10.0 mi NW 6.9 mph - N/A   Overcast
1:55 AM 35.1 °F 29.3 °F 27.9 °F 75% 29.92 in 10.0 mi NW 6.9 mph - N/A   Overcast
2:15 AM 35.1 °F 29.3 °F 27.5 °F 74% 29.92 in 10.0 mi NW 6.9 mph - N/A   Overcast
2:35 AM 35.1 °F 29.3 °F 27.3 °F 73% 29.91 in 10.0 mi NNW 6.9 mph - N/A   Overcast
2:55 AM 35.2 °F 30.3 °F 27.5 °F 73% 29.92 in 10.0 mi NW 5.8 mph - N/A   Overcast
3:15 AM 35.1 °F 30.1 °F 27.3 °F 73% 29.92 in 10.0 mi WNW 5.8 mph - N/A   Overcast
3:35 AM 34.7 °F 29.6 °F 27.1 °F 74% 29.92 in 10.0 mi WNW 5.8 mph - N/A   Overcast
3:55 AM 34.7 °F 30.6 °F 27.3 °F 74% 29.92 in 10.0 mi NW 4.6 mph - N/A   Overcast
4:15 AM 35.2 °F 29.5 °F 27.0 °F 72% 29.93 in 10.0 mi NW 6.9 mph - N/A   Overcast
4:35 AM 34.7 °F 27.5 °F 26.6 °F 72% 29.93 in 10.0 mi NW 9.2 mph - N/A   Overcast
4:55 AM 34.0 °F 28.0 °F 26.6 °F 74% 29.94 in 10.0 mi NNW 6.9 mph - N/A   Overcast
5:15 AM 33.3 °F 27.1 °F 25.9 °F 74% 29.95 in 10.0 mi NW 6.9 mph - N/A   Overcast
5:35 AM 32.4 °F 27.9 °F 25.5 °F 76% 29.95 in 10.0 mi NW 4.6 mph - N/A   Mostly Cloudy
5:55 AM 32.0 °F 27.5 °F 24.8 °F 75% 29.95 in 10.0 mi NW 4.6 mph - N/A   Scattered Clouds
6:15 AM 31.8 °F 26.2 °F 24.6 °F 75% 29.96 in 10.0 mi North 5.8 mph - N/A   Mostly Cloudy
6:35 AM 30.9 °F 26.2 °F 23.9 °F 75% 29.95 in 10.0 mi North 4.6 mph - N/A   Scattered Clouds
6:55 AM 31.3 °F 23.9 °F 24.3 °F 75% 29.96 in 10.0 mi NW 8.1 mph - N/A   Clear
7:15 AM 30.9 °F 26.2 °F 23.9 °F 75% 29.97 in 10.0 mi NW 4.6 mph - N/A   Clear
7:35 AM 31.3 °F 24.7 °F 24.1 °F 75% 29.99 in 10.0 mi NNW 6.9 mph - N/A   Scattered Clouds
7:55 AM 32.0 °F 25.6 °F 24.3 °F 73% 29.99 in 10.0 mi NNW 6.9 mph - N/A   Scattered Clouds
8:15 AM 32.4 °F 25.3 °F 24.8 °F 74% 30.00 in 10.0 mi NNW 8.1 mph - N/A   Mostly Cloudy
8:35 AM 32.0 °F 25.6 °F 24.6 °F 74% 30.01 in 10.0 mi NNW 6.9 mph - N/A   Mostly Cloudy
8:55 AM 32.9 °F 27.5 °F 24.8 °F 72% 30.00 in 10.0 mi North 5.8 mph - N/A   Mostly Cloudy
9:15 AM 34.2 °F - 24.4 °F 68% 30.00 in 10.0 mi Calm Calm - N/A   Mostly Cloudy
9:35 AM 34.5 °F - 24.3 °F 66% 30.00 in 10.0 mi Calm Calm - N/A   Mostly Cloudy
9:55 AM 35.2 °F - 24.1 °F 64% 29.99 in 10.0 mi Calm Calm - N/A   Scattered Clouds
10:15 AM 36.9 °F 34.3 °F 24.8 °F 62% 29.99 in 10.0 mi SE 3.5 mph - N/A   Scattered Clouds
10:35 AM 38.3 °F 34.8 °F 25.0 °F 59% 29.99 in 10.0 mi SE 4.6 mph - N/A   Scattered Clouds
10:55 AM 39.6 °F - 25.5 °F 57% 29.99 in 10.0 mi Calm Calm - N/A   Mostly Cloudy
11:15 AM 39.2 °F - 23.5 °F 53% 29.98 in 10.0 mi Calm Calm - N/A   Overcast
11:35 AM 40.8 °F - 25.0 °F 53% 29.97 in 10.0 mi Calm Calm - N/A   Mostly Cloudy
11:55 AM 41.9 °F 37.5 °F 23.5 °F 48% 29.97 in 10.0 mi WNW 6.9 mph - N/A   Mostly Cloudy
12:15 PM 42.1 °F 36.1 °F 22.1 °F 45% 29.97 in 10.0 mi WNW 10.4 mph - N/A   Scattered Clouds
12:35 PM 42.3 °F 36.8 °F 19.8 °F 41% 29.97 in 10.0 mi NW 9.2 mph - N/A   Clear
12:55 PM 42.3 °F 36.3 °F 17.6 °F 37% 29.98 in 10.0 mi NW 10.4 mph - N/A   Scattered Clouds
1:15 PM 42.4 °F 37.0 °F 18.0 °F 37% 29.98 in 10.0 mi NW 9.2 mph 17.3 mph N/A   Overcast
1:35 PM 41.5 °F 36.4 °F 19.4 °F 41% 29.98 in 10.0 mi NNW 8.1 mph - N/A   Overcast
1:55 PM 41.9 °F 40.0 °F 19.9 °F 42% 29.98 in 10.0 mi North 3.5 mph - N/A   Overcast
2:15 PM 41.7 °F 37.3 °F 17.1 °F 37% 29.99 in 10.0 mi West 6.9 mph - N/A   Overcast
2:35 PM 41.9 °F 39.0 °F 18.3 °F 39% 29.99 in 10.0 mi SW 4.6 mph - N/A   Overcast
2:55 PM 41.7 °F 39.8 °F 18.5 °F 39% 30.00 in 10.0 mi WSW 3.5 mph - N/A   Overcast
3:15 PM 41.2 °F 38.2 °F 20.5 °F 44% 30.00 in 10.0 mi WSW 4.6 mph - N/A   Overcast
3:35 PM 41.0 °F 38.0 °F 21.9 °F 47% 30.00 in 10.0 mi SW 4.6 mph - N/A   Overcast
3:55 PM 40.6 °F 37.5 °F 21.9 °F 47% 30.01 in 10.0 mi SW 4.6 mph - N/A   Overcast
4:15 PM 40.6 °F 37.5 °F 22.8 °F 49% 30.01 in 10.0 mi WNW 4.6 mph - N/A   Overcast
4:35 PM 40.6 °F - 23.9 °F 51% 30.02 in 10.0 mi Calm Calm - N/A   Overcast
4:55 PM 40.1 °F 38.0 °F 24.3 °F 53% 30.02 in 10.0 mi South 3.5 mph - N/A   Overcast
5:15 PM 39.9 °F 36.7 °F 24.8 °F 55% 30.02 in 10.0 mi South 4.6 mph - N/A   Overcast
5:35 PM 40.1 °F 36.9 °F 24.6 °F 54% 30.03 in 10.0 mi South 4.6 mph - N/A   Overcast
5:55 PM 40.1 °F 36.9 °F 26.6 °F 59% 30.03 in 10.0 mi SSW 4.6 mph - N/A   Overcast
6:15 PM 40.6 °F - 27.3 °F 59% 30.03 in 10.0 mi Calm Calm - N/A   Overcast
6:35 PM 40.5 °F - 27.5 °F 60% 30.04 in 10.0 mi Calm Calm - N/A   Overcast
6:55 PM 40.6 °F - 28.0 °F 61% 30.04 in 10.0 mi Calm Calm - N/A   Overcast
7:15 PM 40.5 °F - 28.6 °F 63% 30.05 in 10.0 mi Calm Calm - N/A   Overcast
7:35 PM 41.0 °F 38.0 °F 29.1 °F 63% 30.05 in 10.0 mi WNW 4.6 mph - N/A   Overcast
7:55 PM 40.6 °F - 29.3 °F 64% 30.05 in 10.0 mi Calm Calm - N/A   Overcast
8:15 PM 40.6 °F - 29.3 °F 64% 30.06 in 10.0 mi Calm Calm - N/A   Overcast
8:35 PM 40.5 °F 37.3 °F 29.3 °F 64% 30.06 in 10.0 mi WNW 4.6 mph - N/A   Overcast
8:55 PM 40.6 °F 36.7 °F 29.3 °F 64% 30.06 in 10.0 mi West 5.8 mph - N/A   Overcast
9:15 PM 40.6 °F 36.7 °F 29.7 °F 65% 30.07 in 10.0 mi NW 5.8 mph - N/A   Overcast
9:35 PM 40.5 °F 36.5 °F 29.7 °F 65% 30.09 in 10.0 mi WNW 5.8 mph - N/A   Overcast
9:55 PM 40.6 °F 37.5 °F 29.8 °F 65% 30.09 in 10.0 mi NNW 4.6 mph - N/A   Overcast
10:15 PM 40.5 °F - 30.0 °F 66% 30.08 in 10.0 mi Calm Calm - N/A   Overcast
10:35 PM 40.3 °F - 29.8 °F 66% 30.07 in 10.0 mi Calm Calm - N/A   Overcast
10:55 PM 40.1 °F - 30.0 °F 67% 30.07 in 10.0 mi Calm Calm - N/A   Overcast
11:15 PM 40.1 °F 36.9 °F 29.8 °F 67% 30.06 in 10.0 mi WSW 4.6 mph - N/A   Overcast
11:35 PM 39.6 °F 35.4 °F 29.8 °F 68% 30.07 in 10.0 mi South 5.8 mph - N/A   Overcast
11:55 PM 39.2 °F 35.0 °F 30.2 °F 70% 30.08 in 10.0 mi SW 5.8 mph - N/A   Overcast